Location: Unspecified
(43.4680°N, 87.1740°E)
Time: 19:43:15
(UTC+00:00)

Spot 1 - Pass Details

Date: 17 April 2021
Orbit: 576 x 776 km, 98.7° (Epoch: 11 May)

Event Time Altitude Azimuth Distance (km) Brightness Sun altitude
Exits shadow 20:58:52 70° 318° (NW) 632 4.0 -23.6°
Drops below altitude 10° 21:02:41 10° 344° (NNW) 1,962 6.9 -23.1°
Sets 21:04:55 0° 345° (NNW) 2,897 7.9 -22.8°
